Date,TemperatureHighF,TemperatureAvgF,TemperatureLowF,DewpointHighF,DewpointAvgF,DewpointLowF,HumidityHigh,HumidityAvg,HumidityLow,PressureMaxIn,PressureMinIn,WindSpeedMaxMPH,WindSpeedAvgMPH,GustSpeedMaxMPH,PrecipitationSumIn
2014-1-1,22.4,19.4,13.2,18.7,16.2,10.8,93,87,83,30.24,30.16,8,5,14,0.00
2014-1-2,14.8,10.2,-0.4,11.0,6.5,-4.1,90,85,78,30.52,30.21,17,8,21,0.00
2014-1-3,22.7,10.6,-5.3,16.6,1.5,-99.9,87,76,70,30.53,29.95,18,-32,23,0.00
2014-1-4,37.0,27.5,19.9,30.9,22.2,16.3,94,81,69,30.06,29.88,16,9,19,0.01
2014-1-5,20.5,10.3,-5.0,19.0,7.9,-8.6,94,90,84,30.35,30.01,31,13,34,0.00
2014-1-6,-5.0,-9.0,-13.4,-9.4,-14.3,-99.9,92,79,79,30.49,30.36,27,3,33,0.00
2014-1-7,12.4,1.3,-9.5,7.4,-2.7,-13.5,94,83,79,30.47,30.26,13,6,15,0.00
2014-1-8,16.4,11.1,4.1,12.1,7.1,1.1,89,84,74,30.55,30.32,4,1,6,0.00
2014-1-9,29.7,19.3,11.2,28.7,16.1,5.0,96,87,74,30.54,30.16,12,7,14,0.00
2014-1-10,40.7,35.2,29.7,40.2,34.4,28.7,98,97,96,30.17,29.52,19,9,19,0.46
2014-1-11,40.3,34.9,30.6,37.0,32.2,27.7,98,90,78,29.92,29.51,21,11,22,0.00
2014-1-12,49.1,38.3,27.2,38.5,32.8,25.4,100,81,64,29.92,29.58,14,9,20,1.34
2014-1-13,44.4,35.9,28.9,37.9,32.4,27.4,95,87,76,29.85,29.58,18,6,22,0.00
2014-1-14,36.8,30.6,22.8,34.2,25.8,17.0,95,83,69,30.08,29.69,28,16,33,0.03
2014-1-15,24.6,19.4,14.1,18.0,13.7,9.4,89,78,70,30.23,29.91,22,12,26,0.00
2014-1-16,39.9,29.6,12.6,34.3,25.2,7.1,93,83,73,29.91,29.63,31,14,33,0.00
2014-1-17,15.7,11.6,7.7,10.0,6.7,2.3,87,80,74,30.12,29.89,22,12,25,0.00
2014-1-18,30.5,21.2,9.3,28.2,17.8,6.0,93,87,70,30.07,29.64,20,7,23,0.00
2014-1-19,44.6,30.2,14.1,34.7,24.5,11.2,90,80,65,30.04,29.68,23,13,28,0.02
2014-1-20,40.0,33.8,18.4,35.7,30.3,16.5,95,87,75,30.08,29.74,15,5,16,0.00
2014-1-21,18.1,6.5,1.5,16.2,2.1,-3.2,92,82,72,30.44,30.08,12,5,14,0.00
2014-1-22,21.1,12.7,1.1,15.5,7.9,-4.1,92,81,73,30.43,30.06,26,13,32,0.00
2014-1-23,5.9,-0.8,-5.1,-1.8,-6.5,-10.3,92,76,67,30.78,30.43,20,13,23,0.00
2014-1-24,33.0,17.3,-4.5,23.4,8.1,-8.1,84,68,54,30.70,29.64,28,16,34,0.00
2014-1-25,36.4,23.9,11.1,33.5,14.7,3.7,93,68,50,29.99,29.60,34,15,34,0.00
2014-1-26,44.7,31.3,9.1,34.3,22.5,-2.0,90,70,56,30.10,29.50,36,16,44,0.00
2014-1-27,8.9,3.2,-0.9,0.7,-7.5,-99.9,80,67,62,30.58,30.10,31,-17,32,0.00
2014-1-28,14.2,4.5,-4.4,1.4,-3.1,-8.3,83,71,51,30.59,30.37,13,6,17,0.00
2014-1-29,32.6,17.9,1.8,12.5,6.3,-2.9,83,63,40,30.37,30.01,19,9,24,0.00
2014-1-30,35.2,28.0,19.7,30.2,18.6,10.7,93,69,47,30.05,29.73,25,14,33,0.00
2014-1-31,20.0,17.6,14.4,17.6,14.3,11.1,93,87,81,30.22,30.03,9,4,13,0.00
2014-2-1,26.2,22.8,19.3,24.5,21.0,17.0,100,93,89,30.20,29.86,9,5,12,0.00
2014-2-2,19.8,6.4,-6.6,17.3,2.1,-10.4,91,82,76,30.41,30.19,13,7,16,0.00
2014-2-3,22.0,1.8,-15.1,9.6,-3.5,-19.0,92,79,52,30.50,30.41,5,1,5,0.11
2014-2-4,21.2,14.5,3.5,18.5,10.8,-0.8,100,85,67,30.44,30.11,11,4,14,0.00
2014-2-5,18.5,12.0,-2.7,16.8,9.7,-6.1,93,90,85,30.60,30.09,19,12,22,0.00
2014-2-6,6.8,-5.1,-14.3,3.0,-8.8,-18.2,85,84,82,30.66,30.55,10,5,11,0.00
2014-2-7,15.2,0.6,-15.3,11.0,-3.1,-19.2,86,84,81,30.56,30.40,9,4,9,0.00
2014-2-8,21.0,16.4,9.6,18.0,13.8,6.3,92,89,86,30.39,30.17,11,4,13,0.00
2014-2-9,20.1,10.9,-4.6,18.3,7.6,-8.9,93,86,80,30.45,30.18,15,7,15,0.00
2014-2-10,5.5,-5.7,-12.7,-0.8,-10.2,-16.9,98,80,72,30.61,30.45,10,4,10,0.00
2014-2-11,14.8,-1.7,-15.9,3.8,-7.4,-19.6,92,77,59,30.63,30.41,7,2,7,0.01
2014-2-12,29.6,10.9,-6.6,15.6,4.7,-10.5,87,77,51,30.43,30.07,9,3,10,0.01
2014-2-13,36.4,23.2,6.9,30.9,18.6,3.6,90,83,74,30.07,29.67,20,9,23,0.06
2014-2-14,19.0,13.6,2.7,16.3,10.1,-0.8,91,85,77,30.12,29.75,20,8,22,0.00
2014-2-15,22.7,8.6,-12.2,20.6,5.4,-15.8,92,87,71,30.19,30.00,13,5,14,0.00
2014-2-16,25.4,22.2,16.9,22.2,17.8,13.7,92,83,74,30.29,30.01,17,8,20,0.07
2014-2-17,35.9,28.6,20.2,33.7,26.0,16.1,97,90,78,30.19,29.80,21,9,26,0.03
2014-2-18,49.4,37.8,23.0,33.4,29.4,20.1,92,73,49,30.00,29.69,20,8,24,0.01
2014-2-19,46.4,36.0,24.3,35.4,30.7,21.2,93,81,64,30.02,29.79,17,6,17,0.01
2014-2-20,51.4,37.7,34.7,50.9,35.4,30.6,98,91,80,29.78,29.17,34,13,43,0.00
2014-2-21,40.7,33.6,27.8,31.3,26.4,20.3,89,75,59,29.90,29.55,23,12,27,0.00
2014-2-22,37.0,31.9,24.9,29.7,25.8,20.4,94,79,64,30.14,29.98,5,2,9,0.00
2014-2-23,27.5,23.2,20.2,20.2,15.7,12.3,80,73,61,30.37,30.14,15,7,18,0.00
2014-2-24,25.7,22.1,18.8,18.4,14.7,12.3,90,73,57,30.43,30.30,11,6,13,0.00
2014-2-25,20.6,13.9,6.4,18.1,8.7,2.3,91,80,65,30.40,30.32,23,11,28,0.00
2014-2-26,22.2,11.1,-0.6,13.9,2.3,-6.2,78,68,54,30.42,29.87,23,13,24,0.00
2014-2-27,22.2,10.7,5.3,14.5,0.4,-5.0,76,63,49,30.26,29.88,27,9,27,0.00
2014-2-28,40.9,24.3,5.8,27.8,14.9,-0.4,81,68,51,30.20,29.96,20,9,24,0.00
2014-3-1,35.4,23.6,12.7,28.1,18.9,10.3,90,82,72,30.39,30.01,14,5,20,0.00
2014-3-2,12.7,5.1,-1.8,10.3,-0.9,-99.9,90,81,77,30.54,30.37,12,-14,16,0.00
2014-3-3,18.5,4.0,-8.5,7.0,-5.2,-99.9,79,71,56,30.63,30.38,7,-17,8,0.02
2014-3-4,40.3,22.0,8.8,19.7,13.0,5.0,86,70,41,30.41,30.17,9,4,11,0.01
2014-3-5,29.9,24.6,19.3,22.6,18.8,14.1,87,79,66,30.41,30.21,19,8,24,0.00
2014-3-6,37.2,27.5,15.9,27.6,21.7,13.3,91,79,61,30.39,30.09,10,4,10,0.00
2014-3-7,53.5,37.7,25.3,43.4,31.7,23.0,92,80,60,30.09,29.88,8,3,10,0.00
2014-3-8,36.7,33.8,31.2,33.7,31.8,29.4,95,92,84,30.32,30.03,9,3,9,0.04
2014-3-9,49.2,36.8,26.6,40.7,31.7,24.7,94,82,67,30.32,29.90,17,8,19,0.00
2014-3-10,59.8,46.8,37.9,49.5,40.0,33.3,88,78,60,29.90,29.69,16,8,20,0.00
2014-3-11,61.2,44.1,34.3,49.0,38.9,32.0,94,83,59,29.69,29.56,11,4,19,0.03
2014-3-12,36.8,32.4,28.1,34.7,28.4,24.5,96,85,73,30.17,29.67,25,12,29,0.02
2014-3-13,53.4,37.7,24.6,44.6,31.7,22.1,92,79,65,30.17,29.86,14,6,17,0.00
2014-3-14,56.6,46.2,35.2,42.1,36.4,30.9,84,69,51,29.98,29.70,24,12,26,0.00
2014-3-15,54.1,40.9,29.7,38.3,31.7,27.2,94,72,45,30.14,29.97,12,6,16,0.00
2014-3-16,35.3,27.3,21.0,30.0,20.6,14.5,91,76,58,30.30,30.12,16,8,21,0.00
2014-3-17,40.8,28.2,15.5,27.7,20.0,12.8,91,73,43,30.18,29.78,11,4,15,0.00
2014-3-18,55.6,43.3,31.4,43.9,36.3,25.9,91,77,62,29.81,29.56,27,14,31,0.00
2014-3-19,48.8,40.0,29.7,44.9,36.0,26.9,95,86,75,30.11,29.55,23,13,28,0.00
2014-3-20,56.3,41.6,28.5,37.1,32.8,26.1,92,73,46,30.10,29.93,11,4,11,0.00
2014-3-21,63.2,46.5,33.2,45.8,37.4,30.2,91,72,45,30.02,29.74,23,9,30,0.00
2014-3-22,40.1,34.4,28.4,33.7,26.8,19.2,88,74,51,30.41,30.02,22,11,22,0.00
2014-3-23,34.0,27.0,21.2,20.1,15.9,13.2,84,64,43,30.52,30.40,12,5,15,0.00
2014-3-24,38.1,30.1,22.5,28.4,19.0,14.3,87,64,47,30.43,30.16,7,2,8,0.00
2014-3-25,31.9,27.0,19.7,29.1,19.6,13.1,91,74,53,30.33,30.14,28,13,32,0.00
2014-3-26,45.4,32.1,15.1,29.0,19.7,11.7,88,63,38,30.35,29.95,20,10,25,0.00
2014-3-27,53.9,45.1,36.8,51.0,40.8,29.4,93,85,62,29.95,29.44,22,13,28,0.01
2014-3-28,44.6,39.7,37.3,40.4,35.9,34.2,90,86,77,30.18,29.59,21,8,28,0.00
2014-3-29,47.9,38.8,32.8,37.9,34.3,29.5,92,84,65,30.26,30.15,14,4,16,0.00
2014-3-30,62.3,45.6,29.4,43.2,36.7,27.3,94,73,46,30.28,29.99,15,8,18,0.00
2014-3-31,66.8,55.6,43.9,48.6,43.5,38.9,84,65,47,30.00,29.66,24,14,30,0.00
2014-4-1,50.8,42.4,31.2,41.0,30.7,22.7,75,64,48,30.10,29.77,20,10,26,0.00
2014-4-2,47.5,44.0,41.2,43.1,37.4,31.5,92,78,65,30.12,29.89,16,8,23,0.01
2014-4-3,50.3,46.7,41.7,48.9,45.5,40.6,98,96,88,29.89,29.49,27,8,27,0.00
2014-4-4,54.3,41.3,35.7,53.5,36.4,31.5,98,83,69,30.13,29.49,27,17,33,0.00
2014-4-5,54.1,43.0,34.2,37.4,33.5,30.9,90,71,47,30.26,30.13,10,4,11,0.01
2014-4-6,58.2,45.1,33.3,40.0,35.2,30.2,92,70,39,30.14,29.90,12,5,15,0.00
2014-4-7,59.5,49.0,40.4,45.4,38.3,33.4,84,69,40,29.90,29.65,10,3,11,0.00
2014-4-8,59.9,49.7,39.8,42.7,37.7,33.0,91,67,37,29.99,29.72,19,10,24,0.00
2014-4-9,65.6,50.4,31.7,38.6,35.3,29.0,93,60,32,30.09,29.84,15,8,21,0.00
2014-4-10,65.3,57.4,44.0,48.2,40.0,32.7,66,53,40,29.99,29.71,18,9,23,0.00
2014-4-11,73.2,56.3,34.1,40.2,33.7,29.3,84,48,21,30.08,29.97,10,4,13,0.00
2014-4-12,82.5,67.4,52.0,61.3,52.2,36.7,77,59,44,29.98,29.60,24,12,29,0.00
2014-4-13,70.1,63.6,55.1,63.4,58.5,51.9,96,84,71,29.73,29.38,22,9,27,0.00
2014-4-14,54.4,38.9,32.1,50.9,36.3,28.1,96,90,82,30.09,29.42,24,12,29,0.02
2014-4-15,44.0,35.1,27.6,29.0,24.8,21.4,89,68,42,30.23,30.09,18,9,24,0.01
2014-4-16,56.0,44.8,33.2,35.9,30.8,25.4,77,59,40,30.20,30.00,25,15,33,0.00
2014-4-17,53.5,47.4,39.3,41.2,37.7,32.1,83,69,58,30.28,30.06,17,7,19,0.00
2014-4-18,66.8,50.9,36.1,42.9,36.4,32.5,91,62,29,30.36,30.23,4,2,12,0.00
2014-4-19,74.7,56.9,37.4,45.0,38.2,28.8,80,53,30,30.31,30.14,14,9,20,0.00
2014-4-20,81.9,66.0,46.6,51.9,46.2,38.8,76,51,33,30.17,29.98,14,7,23,0.00
2014-4-21,70.7,63.0,56.2,61.3,55.0,47.1,96,76,57,29.99,29.85,16,6,17,0.00
2014-4-22,64.6,54.1,44.0,52.3,39.5,32.8,87,61,31,30.04,29.89,15,7,21,0.00
2014-4-23,59.3,49.2,36.8,44.5,35.0,31.0,82,59,35,30.18,29.92,16,8,19,0.00
2014-4-24,67.7,57.6,47.3,54.4,44.3,35.0,95,63,42,29.92,29.55,25,11,29,0.00
2014-4-25,74.3,58.9,43.4,51.8,46.6,41.6,95,68,34,29.90,29.65,17,10,22,0.00
2014-4-26,82.1,64.4,48.1,50.7,44.8,36.7,80,53,28,29.86,29.72,21,7,27,0.00
2014-4-27,78.5,61.4,48.6,65.3,52.3,35.0,95,73,49,29.85,29.51,33,16,37,0.00
2014-4-28,73.6,62.8,51.9,64.1,57.8,46.9,96,84,63,29.56,29.31,29,13,34,0.00
2014-4-29,54.7,52.1,48.8,50.4,47.8,45.6,94,85,76,29.67,29.39,19,11,24,0.02
2014-4-30,52.4,45.5,41.5,47.5,40.9,36.8,95,84,67,29.85,29.67,16,11,20,0.03
2014-5-1,50.1,46.2,43.4,44.0,42.1,40.7,92,86,74,29.92,29.78,18,11,21,0.02
2014-5-2,61.0,51.4,45.0,47.8,44.2,42.3,92,77,58,29.92,29.74,15,8,21,0.00
2014-5-3,71.7,59.4,46.2,47.5,43.6,39.4,83,59,33,29.93,29.74,17,8,22,0.00
2014-5-4,74.4,58.1,46.1,62.3,41.9,-99.9,92,58,34,30.03,29.85,18,2,19,0.01
2014-5-5,70.7,59.1,46.9,46.5,37.0,22.7,57,44,32,29.93,29.77,18,9,22,0.00
2014-5-6,81.0,65.5,48.5,60.4,46.9,37.5,68,52,36,29.87,29.64,20,14,25,0.00
2014-5-7,87.3,75.4,64.8,62.4,58.9,55.9,73,58,36,29.74,29.66,20,9,24,0.00
2014-5-8,86.3,74.0,66.5,66.4,62.7,60.6,87,69,43,29.82,29.71,22,12,29,0.20
2014-5-9,73.3,65.8,54.8,63.8,53.9,44.7,94,68,38,29.89,29.66,17,10,24,0.06
2014-5-10,79.3,65.4,50.9,57.7,47.6,40.0,86,58,25,29.95,29.80,31,8,40,0.07
2014-5-11,83.9,72.3,57.8,69.6,62.9,55.3,93,73,55,29.89,29.76,19,8,23,0.00
2014-5-12,89.8,77.4,66.0,69.2,66.8,62.7,96,72,41,29.88,29.69,22,12,26,0.37
2014-5-13,66.4,55.0,49.6,65.2,51.2,46.2,97,87,76,30.21,29.79,18,10,20,0.04
2014-5-14,56.9,49.6,45.4,46.1,44.2,40.8,93,82,58,30.22,30.05,6,3,7,0.13
2014-5-15,57.4,50.1,42.5,48.8,44.8,40.3,95,82,62,30.06,29.99,19,6,22,0.09
2014-5-16,54.9,46.6,41.9,44.7,40.9,36.1,94,82,52,30.14,29.97,15,6,19,0.01
2014-5-17,62.2,50.7,37.4,43.8,36.8,30.4,94,63,31,30.20,30.13,8,4,13,0.00
2014-5-18,68.7,57.3,42.6,43.5,39.6,36.0,85,54,32,30.26,30.13,13,7,17,0.00
2014-5-19,74.6,64.3,50.8,61.2,51.0,43.0,79,63,45,30.17,29.80,24,13,31,0.00
2014-5-20,86.3,75.2,65.7,66.3,62.7,59.3,83,66,48,29.89,29.77,16,8,19,0.00
2014-5-21,88.2,78.4,67.8,68.5,63.8,52.1,86,62,42,29.95,29.77,13,6,16,0.00
2014-5-22,73.2,65.7,57.0,53.4,50.2,43.1,83,59,36,30.19,29.95,15,3,19,0.00
2014-5-23,80.1,67.4,51.6,54.5,47.4,41.1,93,54,26,30.16,30.07,6,2,10,0.00
2014-5-24,79.9,68.6,52.8,54.8,50.2,46.6,80,54,33,30.17,30.05,10,5,14,0.00
2014-5-25,79.1,70.3,63.0,63.7,58.0,52.6,85,66,50,30.09,29.97,12,5,15,0.00
2014-5-26,87.9,74.7,62.1,67.6,63.4,58.8,90,70,44,30.01,29.89,19,8,22,0.00
2014-5-27,86.1,74.8,67.3,66.9,63.1,58.2,86,69,40,29.96,29.85,13,7,15,0.00
2014-5-28,88.4,73.7,64.7,67.8,63.7,59.3,96,74,38,29.94,29.86,14,3,15,0.44
2014-5-29,83.5,72.2,62.8,70.9,66.4,61.1,96,83,59,30.02,29.93,15,5,17,0.00
2014-5-30,84.5,74.3,63.1,70.7,66.2,60.9,95,77,55,30.09,30.01,13,4,16,0.00
2014-5-31,87.8,75.3,65.0,69.9,65.1,58.3,94,72,48,30.09,29.97,13,5,18,0.00
2014-6-1,87.7,78.2,69.4,72.7,68.5,66.2,96,74,50,30.01,29.80,15,7,21,0.10
2014-6-2,84.7,77.6,69.1,68.6,65.9,63.2,84,68,50,29.89,29.73,18,10,22,0.00
2014-6-3,89.3,77.0,67.2,66.7,61.5,53.0,92,63,31,29.98,29.81,20,3,24,0.34
2014-6-4,78.3,68.5,64.5,70.1,64.4,58.7,97,87,70,29.88,29.54,17,5,19,2.58
2014-6-5,74.8,66.4,57.0,62.4,58.3,55.9,97,77,53,29.97,29.84,14,5,18,0.00
2014-6-6,82.6,70.1,56.0,65.7,61.2,54.9,97,76,50,29.97,29.88,5,2,6,0.00
2014-6-7,75.9,66.9,61.8,66.2,63.2,60.3,97,89,65,29.95,29.69,12,5,18,2.69
2014-6-8,76.6,67.8,58.9,65.0,61.8,57.8,97,82,62,30.00,29.82,5,2,9,0.00
2014-6-9,78.0,67.7,55.5,64.0,58.1,49.7,93,72,54,29.98,29.81,11,4,12,0.00
2014-6-10,65.9,64.0,62.0,64.4,62.2,59.2,98,94,81,29.82,29.70,16,5,22,1.07
2014-6-11,74.8,65.9,61.5,66.5,62.8,60.6,98,90,72,29.77,29.68,7,3,10,0.00
2014-6-12,74.5,66.6,59.6,67.6,62.1,56.0,99,86,65,29.91,29.76,14,6,17,0.00
2014-6-13,76.0,64.0,51.2,57.7,50.9,43.6,91,66,34,30.06,29.91,6,2,10,0.00
2014-6-14,77.1,66.9,54.8,55.9,52.5,48.4,91,62,39,30.06,29.86,16,8,19,0.00
2014-6-15,84.5,72.3,61.5,71.0,62.4,55.5,91,72,51,29.96,29.72,17,9,23,0.00
2014-6-16,86.9,76.7,64.3,75.8,70.2,63.0,98,81,64,30.02,29.79,14,5,16,0.00
2014-6-17,88.0,79.9,69.1,76.4,71.6,65.0,90,77,58,29.95,29.79,13,7,21,0.02
2014-6-18,89.1,81.0,72.2,77.7,73.7,69.7,93,79,64,29.90,29.83,12,6,19,0.00
2014-6-19,89.2,79.2,70.5,76.5,72.3,67.4,96,81,55,30.00,29.89,13,5,19,0.22
2014-6-20,87.6,77.2,69.1,74.4,69.4,63.5,98,79,48,29.97,29.91,8,3,12,0.01
2014-6-21,86.5,72.9,65.5,75.5,68.1,64.2,98,86,65,29.94,29.82,13,4,16,0.59
2014-6-22,83.2,71.6,62.4,76.1,67.9,61.5,98,89,70,29.89,29.79,17,4,19,1.03
2014-6-23,80.3,72.1,65.6,73.0,69.1,64.7,98,91,72,29.85,29.78,7,3,10,0.00
2014-6-24,83.3,74.7,67.0,71.1,68.0,64.6,99,81,55,29.91,29.83,10,4,15,0.00
2014-6-25,85.2,74.7,62.9,72.7,66.2,61.0,98,77,45,29.98,29.91,6,3,7,0.00
2014-6-26,85.1,73.9,62.7,71.9,67.8,61.3,97,83,59,30.00,29.89,9,3,11,0.39
2014-6-27,85.5,76.3,68.3,75.0,70.5,67.1,97,83,65,29.94,29.87,11,5,15,0.00
2014-6-28,83.6,75.6,70.2,77.0,72.2,68.7,96,89,74,29.95,29.83,10,5,14,0.23
2014-6-29,85.0,75.8,66.0,77.3,71.8,65.1,98,88,75,29.96,29.79,14,4,20,0.15
2014-6-30,86.8,78.6,66.6,79.8,74.2,65.2,96,87,72,29.85,29.55,20,6,20,0.91
2014-7-1,80.7,72.3,65.8,68.5,66.4,63.8,98,83,57,29.85,29.66,13,6,15,0.01
2014-7-2,67.4,62.8,59.1,64.4,58.7,55.5,96,87,71,30.06,29.85,12,6,16,0.00
2014-7-3,76.2,66.4,56.9,62.2,58.2,54.0,97,77,48,30.19,30.06,9,4,12,0.00
2014-7-4,77.7,67.3,56.4,62.5,56.0,49.2,97,71,40,30.30,30.19,9,2,11,0.00
2014-7-5,75.0,66.1,56.7,65.7,60.2,54.3,96,82,65,30.23,30.01,7,3,12,0.30
2014-7-6,85.0,74.6,63.2,75.6,69.5,62.3,98,85,64,30.01,29.77,9,4,13,0.02
2014-7-7,86.3,79.1,72.5,75.3,70.9,65.3,94,77,50,29.78,29.61,9,4,13,0.00
2014-7-8,80.0,73.2,66.1,71.3,65.1,61.4,95,77,57,29.88,29.63,14,8,19,0.08
2014-7-9,79.1,69.6,60.5,65.1,61.0,56.7,96,76,48,30.05,29.87,10,4,15,0.00
2014-7-10,81.0,69.0,55.7,65.1,60.2,54.9,98,76,47,30.14,30.05,7,2,10,0.00
2014-7-11,81.8,71.0,57.2,71.6,64.3,55.2,94,80,61,30.16,30.00,8,4,13,0.00
2014-7-12,89.1,80.5,72.9,78.5,74.3,69.5,97,82,66,30.04,29.86,13,4,14,0.40
2014-7-13,83.9,75.1,69.7,74.1,70.6,67.3,98,87,63,29.96,29.86,10,3,11,1.48
2014-7-14,78.8,70.7,58.0,72.7,63.0,53.2,97,79,50,29.96,29.83,16,6,24,0.54
2014-7-15,68.8,61.0,54.4,57.3,54.5,51.5,96,80,60,30.02,29.94,12,6,16,0.00
2014-7-16,74.7,64.2,52.6,62.9,56.0,51.3,97,77,49,30.05,30.00,5,2,8,0.00
2014-7-17,79.6,66.5,53.0,64.8,57.9,51.9,98,77,42,30.09,30.02,4,1,5,0.00
2014-7-18,79.4,68.4,57.5,64.6,60.3,56.3,97,77,51,30.13,30.03,6,2,10,0.00
2014-7-19,79.9,68.4,56.0,67.0,61.2,55.3,99,80,51,30.06,29.98,4,1,5,0.00
2014-7-20,81.0,70.6,58.7,68.1,63.8,57.6,97,80,59,30.03,29.96,6,2,10,0.00
2014-7-21,85.0,74.0,61.2,72.9,67.5,59.9,96,81,63,30.06,29.98,6,3,12,0.00
2014-7-22,83.4,75.7,68.7,77.8,72.0,66.6,97,89,79,30.05,29.93,9,3,14,0.00
2014-7-23,80.1,74.1,61.6,76.0,65.7,58.8,97,77,51,30.11,29.97,6,3,11,0.00
2014-7-24,78.8,67.1,55.8,65.8,57.9,54.2,97,75,47,30.16,29.97,10,2,15,0.00
2014-7-25,77.7,65.1,57.7,66.4,60.9,55.7,97,87,64,30.08,29.82,12,4,18,0.72
2014-7-26,81.3,73.6,66.8,76.8,70.8,63.5,99,91,84,29.86,29.77,8,4,10,0.51
2014-7-27,80.9,74.0,64.1,75.4,66.8,60.5,99,80,53,29.94,29.76,19,8,24,0.00
2014-7-28,73.1,66.1,55.4,61.5,58.1,54.0,97,77,54,30.11,29.94,8,3,12,0.00
2014-7-29,77.0,65.2,52.4,64.2,58.2,51.7,98,80,54,30.11,30.03,9,3,12,0.00
2014-7-30,78.9,67.7,55.6,66.5,60.8,54.8,98,81,53,30.07,30.01,6,3,10,0.01
2014-7-31,80.9,68.9,56.9,68.7,62.3,56.1,98,82,50,30.07,30.01,5,2,8,0.00
2014-8-1,83.1,69.4,60.7,68.7,63.6,59.8,98,84,52,30.08,30.00,13,2,14,0.10
2014-8-2,83.9,69.6,57.5,69.4,63.0,56.9,99,82,52,30.15,30.06,3,1,4,0.01
2014-8-3,83.8,71.5,57.4,71.3,64.9,56.8,99,82,54,30.16,30.04,4,1,6,0.00
2014-8-4,85.7,72.9,62.9,73.1,67.4,61.7,97,84,61,30.08,29.96,7,2,13,0.01
2014-8-5,82.7,73.0,65.6,74.2,69.2,64.8,99,89,71,30.02,29.95,8,2,11,0.02
2014-8-6,78.0,69.9,62.0,71.6,67.1,61.4,99,91,75,30.06,29.95,7,2,8,0.04
2014-8-7,70.0,68.0,64.7,68.7,66.7,63.6,98,96,91,30.00,29.91,12,8,15,0.89
2014-8-8,74.6,68.9,65.1,70.5,67.3,64.5,98,95,86,29.99,29.90,11,6,14,0.23
2014-8-9,78.7,71.9,66.0,71.4,67.4,64.3,97,86,70,30.02,29.95,11,3,11,0.00
2014-8-10,80.2,71.7,66.1,73.6,68.9,64.7,97,91,77,30.01,29.91,6,2,7,0.04
2014-8-11,80.6,72.3,64.4,73.5,67.7,61.7,98,86,68,29.92,29.84,15,6,16,0.34
2014-8-12,75.3,67.0,59.2,61.9,59.8,56.7,97,79,54,30.00,29.87,13,7,17,0.00
2014-8-13,79.9,66.9,52.6,67.8,59.1,51.7,97,79,50,30.09,30.00,6,3,9,0.00
2014-8-14,82.6,70.0,58.8,70.8,64.5,58.0,98,84,59,30.06,29.98,5,2,6,0.00
2014-8-15,71.5,65.4,57.8,67.3,61.3,53.7,97,87,69,30.05,29.91,10,4,14,0.01
2014-8-16,69.7,67.9,66.1,68.2,66.8,65.5,99,97,93,29.91,29.83,8,4,11,0.30
2014-8-17,77.2,70.6,66.8,72.0,68.6,65.9,99,94,82,29.92,29.82,5,2,7,0.01
2014-8-18,83.1,73.1,64.8,73.9,69.4,64.0,99,89,70,29.90,29.75,6,2,7,0.00
2014-8-19,83.2,73.1,66.8,74.0,69.5,65.9,98,89,66,29.80,29.71,9,3,12,0.07
2014-8-20,83.3,71.7,64.0,75.8,69.8,63.4,99,94,76,29.97,29.79,14,2,15,1.83
2014-8-21,90.1,79.9,71.4,79.9,75.0,70.1,97,86,68,29.91,29.83,7,3,10,0.00
2014-8-22,88.0,79.6,74.7,80.4,76.4,73.9,98,90,73,29.97,29.82,6,2,12,0.05
2014-8-23,85.6,78.4,73.4,79.4,74.7,71.9,99,89,71,29.94,29.84,13,3,16,0.00
2014-8-24,92.6,79.3,69.0,80.1,74.5,68.4,99,87,59,29.92,29.86,5,2,6,0.00
2014-8-25,93.6,83.7,75.6,81.4,77.2,72.8,98,82,55,29.99,29.90,7,3,11,0.01
2014-8-26,88.4,78.7,72.5,79.5,74.5,71.2,99,87,73,30.07,29.95,11,2,12,0.00
2014-8-27,83.7,75.6,69.0,74.6,71.2,67.6,96,87,67,30.10,30.01,8,2,9,0.00
2014-8-28,85.2,72.9,66.7,76.3,69.4,62.8,97,89,72,30.04,29.92,13,5,23,0.76
2014-8-29,87.7,75.8,68.6,74.9,70.7,67.6,97,86,58,29.94,29.78,11,4,11,0.14
2014-8-30,85.1,75.5,69.0,74.1,70.9,68.0,97,86,65,29.88,29.80,9,4,13,0.00
2014-8-31,88.0,76.5,65.5,75.8,70.8,65.0,99,84,58,29.91,29.77,5,2,10,0.01
2014-9-1,81.2,74.4,69.1,71.9,68.7,66.2,97,83,65,29.86,29.66,12,5,15,0.00
2014-9-2,82.1,73.3,62.5,70.8,67.2,61.2,98,83,55,29.96,29.83,9,3,14,0.00
2014-9-3,84.6,72.8,60.2,72.1,67.1,59.6,99,84,63,30.01,29.88,7,3,13,0.00
2014-9-4,92.3,80.5,70.0,77.9,73.1,66.3,94,79,60,29.96,29.85,10,5,15,0.02
2014-9-5,88.0,75.2,61.3,76.9,69.6,58.5,96,84,66,30.12,29.91,18,5,22,0.16
2014-9-6,75.3,64.2,54.2,61.1,56.9,52.3,96,80,46,30.20,30.08,5,2,11,0.00
2014-9-7,76.1,63.2,49.8,61.6,54.4,49.0,99,77,42,30.22,30.09,7,2,10,0.01
2014-9-8,79.9,66.4,50.0,64.2,57.3,49.3,98,75,49,30.11,29.86,9,3,16,0.00
2014-9-9,72.3,66.7,62.7,68.9,64.0,58.9,99,91,68,29.99,29.73,15,5,16,1.64
2014-9-10,77.5,70.6,58.9,73.8,68.1,56.5,99,92,76,29.91,29.55,14,8,21,3.20
2014-9-11,58.8,54.5,51.7,56.5,50.8,47.3,97,88,75,30.29,29.91,7,3,14,0.01
2014-9-12,56.0,50.3,43.3,49.7,47.4,42.1,96,90,76,30.36,30.25,7,2,11,0.02
2014-9-13,62.5,48.9,39.1,47.4,42.5,38.6,99,82,47,30.41,30.29,4,2,9,0.01
2014-9-14,69.8,54.1,39.2,51.1,45.1,38.7,99,76,42,30.32,30.15,6,2,10,0.01
2014-9-15,64.0,57.1,49.4,60.2,55.0,48.0,97,93,85,30.20,30.01,9,2,12,0.37
2014-9-16,68.4,55.5,44.0,53.8,48.6,43.5,99,81,48,30.24,30.07,4,1,7,0.01
2014-9-17,68.1,55.8,45.5,57.2,51.9,45.0,99,88,60,30.08,29.93,5,2,8,0.00
2014-9-18,74.1,59.5,45.6,58.8,52.0,45.1,99,79,47,30.09,30.00,10,3,12,0.01
2014-9-19,78.5,63.5,47.4,58.9,53.7,46.4,97,74,45,30.10,29.94,10,4,15,0.00
2014-9-20,81.4,70.4,59.9,70.4,65.3,58.0,97,85,65,29.96,29.81,13,5,14,0.00
2014-9-21,70.6,62.8,52.8,68.6,54.4,47.9,98,76,45,30.16,29.81,17,7,23,0.00
2014-9-22,71.4,57.2,45.0,53.6,48.0,43.0,98,75,37,30.32,30.16,4,1,6,0.00
2014-9-23,76.1,59.0,43.0,57.4,48.3,42.2,99,73,37,30.33,30.20,7,2,10,0.00
2014-9-24,77.2,61.9,46.6,57.9,51.3,45.4,97,73,37,30.31,30.18,8,2,11,0.00
2014-9-25,80.4,67.0,56.9,60.9,56.8,53.9,95,73,42,30.25,30.14,6,2,9,0.00
2014-9-26,83.9,68.9,57.0,62.8,59.6,56.2,98,76,43,30.21,30.12,8,2,11,0.00
2014-9-27,83.2,67.6,53.7,66.4,59.2,52.8,98,78,45,30.20,30.08,7,2,11,0.00
2014-9-28,83.9,67.4,53.7,62.4,57.5,53.1,99,75,38,30.13,30.02,3,1,5,0.00
2014-9-29,84.1,68.2,53.9,62.6,57.7,52.9,98,73,43,30.04,29.91,7,2,12,0.00
2014-9-30,70.3,61.4,56.3,60.4,57.2,51.3,97,87,69,29.98,29.89,10,4,11,0.00
2014-10-1,72.4,61.6,50.7,65.9,57.8,48.8,98,88,64,29.92,29.79,12,6,16,0.72
2014-10-2,69.3,65.3,62.6,66.1,64.3,61.6,99,96,88,29.84,29.57,10,3,14,1.10
2014-10-3,64.0,53.3,44.1,63.4,46.3,32.8,99,78,56,29.96,29.56,21,12,25,0.80
2014-10-4,52.3,43.7,36.7,36.2,33.8,30.3,91,69,49,29.91,29.84,16,9,25,0.00
2014-10-5,64.2,50.1,36.3,45.4,40.1,34.0,92,72,36,29.84,29.66,9,3,13,0.00
2014-10-6,66.2,55.7,46.7,50.1,44.8,36.8,96,70,36,29.72,29.60,15,6,20,0.00
2014-10-7,74.0,59.5,45.5,56.3,47.9,38.0,94,70,29,29.92,29.65,21,6,29,0.03
2014-10-8,69.7,55.1,41.2,47.0,41.9,37.3,95,66,31,30.11,29.93,10,3,14,0.00
2014-10-9,59.1,54.9,50.9,55.5,51.9,46.6,96,90,82,30.13,30.04,6,2,8,0.16
2014-10-10,59.8,52.8,46.3,53.7,43.0,40.6,95,70,51,30.17,30.06,8,2,10,0.00
2014-10-11,61.7,48.3,38.4,45.9,40.2,34.3,99,77,37,30.25,30.11,8,2,10,0.00
2014-10-12,55.1,46.9,35.0,54.8,45.8,34.0,99,96,86,30.11,29.84,9,4,12,0.05
2014-10-13,68.5,61.4,55.1,66.8,60.4,54.8,99,96,91,29.85,29.41,15,6,18,0.64
2014-10-14,62.8,58.0,52.7,60.5,56.2,51.9,98,94,88,29.68,29.38,10,5,16,0.19
2014-10-15,57.0,53.5,50.8,52.5,49.8,48.0,97,87,74,29.88,29.68,11,5,15,0.00
2014-10-16,73.2,57.5,43.2,54.3,48.6,42.7,99,76,37,29.89,29.66,7,3,13,0.00
2014-10-17,64.1,56.0,47.1,49.7,47.1,44.0,91,73,54,29.97,29.65,16,9,20,0.00
2014-10-18,54.8,50.3,44.2,46.4,45.0,42.1,95,82,69,30.23,29.97,11,4,14,0.00
2014-10-19,64.6,51.9,36.6,47.2,43.2,35.6,98,74,47,30.23,29.94,7,3,12,0.00
2014-10-20,68.3,56.4,47.6,49.8,46.4,43.5,94,72,43,30.00,29.88,13,6,19,0.00
2014-10-21,62.5,49.7,40.2,47.1,42.1,37.8,96,77,48,30.24,29.99,5,2,7,0.00
2014-10-22,61.3,46.4,34.5,44.5,39.6,33.7,98,80,48,30.35,30.20,9,3,12,0.01
2014-10-23,63.3,50.9,38.0,52.4,44.9,36.4,96,81,54,30.23,30.05,7,3,15,0.01
2014-10-24,71.3,57.5,48.4,57.7,52.7,47.9,99,85,57,30.09,29.92,5,2,9,0.01
2014-10-25,76.6,59.7,48.0,57.7,48.0,39.2,99,71,27,30.02,29.92,9,3,11,0.00
2014-10-26,70.0,56.3,40.2,50.5,40.3,35.3,92,59,29,30.03,29.74,13,5,15,0.00
2014-10-27,79.3,69.3,60.1,62.0,59.6,51.0,88,73,50,29.74,29.56,10,6,18,0.00
2014-10-28,66.3,55.6,42.3,57.0,40.1,31.1,81,58,31,30.07,29.68,18,10,22,0.00
2014-10-29,53.2,43.5,34.1,39.1,35.8,31.2,90,75,53,30.17,30.06,16,6,20,0.00
2014-10-30,55.5,42.6,31.3,44.8,38.1,30.0,97,85,61,30.17,30.02,10,3,14,0.00
2014-10-31,47.3,39.8,26.2,43.1,28.5,21.6,94,65,41,30.44,30.11,14,7,24,0.00
2014-11-1,48.7,34.5,23.1,30.1,25.0,19.8,87,70,44,30.52,30.40,8,2,9,0.00
2014-11-2,49.3,41.3,27.5,31.6,28.4,23.8,88,62,42,30.41,30.15,16,9,18,0.00
2014-11-3,70.1,57.9,43.0,55.2,41.4,28.9,81,54,44,30.15,29.95,21,10,24,0.00
2014-11-4,60.5,49.3,39.7,55.4,44.6,37.5,94,84,69,30.15,29.92,16,8,19,0.03
2014-11-5,66.1,50.6,35.2,46.1,36.1,28.4,97,64,25,30.17,29.92,15,7,17,0.03
2014-11-6,51.2,42.0,28.2,47.7,35.2,24.7,90,77,56,30.29,29.90,25,12,30,0.01
2014-11-7,51.6,38.3,23.1,35.7,30.2,21.4,96,74,49,30.28,29.79,13,6,18,0.00
2014-11-8,49.4,42.7,28.6,42.7,32.6,25.0,88,68,46,30.07,29.77,24,12,32,0.00
2014-11-9,61.9,45.8,27.3,38.9,33.7,24.3,90,65,40,30.03,29.75,16,7,20,0.00
2014-11-10,69.5,55.7,43.4,46.8,42.4,35.7,79,62,40,29.76,29.43,18,9,22,0.00
2014-11-11,53.2,35.1,29.3,45.5,30.1,23.0,92,82,75,30.29,29.60,22,16,27,0.03
2014-11-12,29.4,26.4,23.0,23.3,17.4,14.1,78,68,60,30.43,30.29,18,13,21,0.00
2014-11-13,29.6,24.4,18.2,22.9,18.8,14.6,90,79,60,30.45,30.42,18,8,20,0.00
2014-11-14,29.3,20.8,13.2,19.9,14.6,10.1,89,77,54,30.48,30.41,11,4,14,0.00
2014-11-15,33.3,25.2,14.1,23.7,18.5,12.2,93,77,56,30.43,30.23,8,2,10,0.00
2014-11-16,31.4,26.8,15.8,28.5,24.2,11.8,95,90,83,30.24,30.03,10,5,12,0.00
2014-11-17,22.9,17.7,13.0,14.3,10.1,3.7,88,73,47,30.22,30.01,21,13,26,0.00
2014-11-18,24.9,16.4,9.5,14.1,8.4,5.2,83,71,50,30.30,30.06,16,8,19,0.00
2014-11-19,32.1,27.6,22.9,23.3,18.4,14.2,75,68,59,30.18,29.83,23,12,28,0.00
2014-11-20,32.8,22.7,14.5,18.5,13.2,9.2,85,68,44,30.39,30.17,14,6,18,0.00
2014-11-21,38.0,26.4,10.1,31.9,15.1,5.8,90,65,36,30.47,30.18,15,8,19,0.01
2014-11-22,58.9,49.2,35.2,52.1,45.3,31.7,94,87,78,30.18,29.79,15,9,18,0.01
2014-11-23,54.0,51.3,47.9,52.5,49.8,47.0,99,94,87,29.80,29.15,19,7,22,0.58
2014-11-24,47.2,33.7,30.3,46.1,31.0,26.0,97,90,83,29.96,29.17,23,16,27,0.13
2014-11-25,32.6,27.2,22.5,27.2,23.6,20.5,93,86,78,30.21,29.97,19,7,22,0.00
2014-11-26,31.9,28.0,22.1,30.9,26.6,20.5,97,95,91,30.29,30.01,14,7,17,0.00
2014-11-27,27.3,19.2,5.5,25.5,15.5,1.1,95,85,71,30.52,30.29,17,7,19,0.00
2014-11-28,38.7,28.2,14.1,34.5,24.2,9.1,91,85,76,30.45,29.82,15,9,16,0.04
2014-11-29,56.7,46.1,35.6,51.0,42.5,33.2,96,87,79,29.82,29.61,13,6,17,0.00
2014-11-30,49.3,35.9,22.9,46.8,32.8,18.2,97,89,80,30.39,29.63,19,10,24,0.00
2014-12-1,24.5,21.2,16.2,18.6,12.4,8.0,85,69,51,30.72,30.39,10,4,14,0.00
2014-12-2,31.1,22.9,13.2,25.8,18.9,10.5,91,85,75,30.55,30.14,10,4,12,0.00
2014-12-3,38.0,28.4,21.2,26.7,22.4,19.2,93,79,51,30.43,30.16,10,5,12,0.00
2014-12-4,34.5,31.2,26.2,32.2,26.2,20.5,96,82,72,30.40,30.22,11,6,14,0.00
2014-12-5,39.7,36.1,33.1,39.0,35.4,32.1,99,97,96,30.26,30.12,6,3,8,0.03
2014-12-6,36.2,33.0,26.2,35.6,31.8,25.2,98,95,86,30.64,30.26,6,2,9,0.00
2014-12-7,37.2,30.8,24.4,32.8,28.9,23.2,97,92,83,30.64,30.26,14,6,15,0.00
2014-12-8,42.9,37.3,32.6,41.3,35.3,28.3,98,92,83,30.27,30.07,21,7,26,0.02
2014-12-9,34.0,32.2,30.5,30.8,29.2,26.8,93,88,83,30.43,30.22,12,6,18,0.00
2014-12-10,34.2,32.6,29.2,30.2,27.8,24.8,89,82,78,30.43,30.33,5,2,7,0.00
2014-12-11,33.7,28.5,23.5,27.9,25.0,22.0,97,87,78,30.37,30.30,6,2,7,0.00
2014-12-12,40.6,35.3,28.4,36.7,32.3,26.9,94,89,80,30.40,30.27,6,3,9,0.00
2014-12-13,50.9,42.8,34.4,47.2,40.9,33.0,98,93,86,30.28,30.11,9,4,10,0.00
2014-12-14,50.5,48.0,44.3,50.0,47.6,43.5,99,98,96,30.12,29.94,12,7,15,0.00
2014-12-15,49.5,48.2,43.1,48.5,47.3,42.0,99,97,93,29.95,29.62,24,13,28,0.28
2014-12-16,43.1,33.2,24.9,42.4,31.2,21.6,98,92,86,30.30,29.66,21,15,24,0.02
2014-12-17,28.9,23.3,20.2,24.2,20.3,17.5,94,88,79,30.39,30.29,14,6,15,0.00
2014-12-18,28.6,25.6,19.5,25.7,22.5,17.9,95,88,80,30.35,30.28,3,1,4,0.00
2014-12-19,36.2,29.7,26.1,28.0,25.9,23.0,93,86,69,30.37,30.28,7,2,7,0.00
2014-12-20,37.2,33.7,30.0,34.5,31.0,27.2,94,90,85,30.30,30.22,9,4,10,0.00
2014-12-21,41.2,38.2,36.1,37.3,35.3,33.9,94,89,85,30.22,29.93,17,9,20,0.00
2014-12-22,46.6,40.5,36.3,46.1,39.1,33.8,99,94,87,29.93,29.47,15,10,17,0.36
2014-12-23,47.9,41.2,31.4,45.8,38.4,30.4,98,90,72,29.78,29.48,16,7,17,0.00
2014-12-24,37.3,35.9,32.6,36.0,34.2,31.3,98,94,86,29.81,29.62,12,7,16,0.00
2014-12-25,48.3,40.0,33.4,39.0,35.0,31.1,92,83,61,29.98,29.81,14,9,17,0.00
2014-12-26,54.0,45.8,39.6,47.2,41.5,36.5,92,85,72,30.04,29.97,14,8,18,0.00
2014-12-27,50.0,39.5,29.2,48.1,36.1,25.0,96,87,80,30.23,29.96,16,11,19,0.00
2014-12-28,36.4,28.9,22.5,26.5,24.0,20.5,93,82,65,30.28,30.21,13,4,14,0.00
2014-12-29,38.0,27.5,19.9,27.2,22.3,18.3,95,81,59,30.56,30.27,5,2,10,0.00
2014-12-30,23.8,16.1,10.9,17.9,9.0,3.8,87,74,48,30.79,30.56,11,6,16,0.00
2014-12-31,23.6,13.8,3.7,9.6,4.6,-0.5,84,66,43,30.76,30.31,17,8,20,0.00
2015-1-1,33.1,23.2,15.9,20.0,14.6,9.4,85,70,54,30.31,30.12,16,9,19,0.00
2015-1-2,37.9,29.0,18.2,32.3,22.4,14.5,96,76,53,30.34,30.10,9,3,9,0.06